OneWeb SL0584

operational
NORAD ID: 54651 Int'l Des: 2022-166 Owner: ONEWEBN Country: UK Constellation: oneweb
LEOCIRCULARPOLARONEWEB_TYPE

About OneWeb SL0584

Description loading...

Live Position

Loading 3D Globe...

Upcoming Passes

Altitude History

Altitude vs Time

uPlot chart will show altitude changes over time

Two-Line Element Set

1 54651U 22166K 25298.50364654 .00000996 00000-0 23811-2 0 9998
2 54651 87.9166 290.8117 0001531 77.9246 282.2059 13.21821937140519
Epoch: Oct 25, 2025 • Age: 13 hours

Current Status

Altitude 1186.4 km
Velocity 7.27 km/s
Sub-Earth Point 57.71°N, 117.11°W
Launch Date Dec 8, 2022
Age 2.8 years
Type internet

Technical Details

Classification Payload
Mass 148.00 kg
Dry Mass 140.00 kg
Total Mass 148.00 kg
Length 1.30 m
Diameter 1.00 m
Span 5.00 m
Shape Trapezoid+2 pan
Manufacturer ONEWUS
Bus Type ARROW
Phase Status In Orbit
Owner/State ONEWEBN/UK

Large Constellations

Loading constellations...